This is the latest recevied weather packets stored in our database for station/object KG5MMT-15. If no packets are shown the sender has not sent any weather packets the latest 10 day(s).
| Time | Temp. | Humidity | Pressure | Rain* | Wind** | Luminosity | Snow |
|---|---|---|---|---|---|---|---|
| 1788079075 | 15.56° C | 71% | 0 hPa | 0 mm | - | - | - |
| 1788078775 | 15.56° C | 70% | 0 hPa | 0 mm | - | - | - |
| 1788078475 | 15° C | 73% | 0 hPa | 0 mm | - | - | - |
| 1788078175 | 15.56° C | 74% | 0 hPa | 0 mm | - | - | - |
| 1788077875 | 15.56° C | 76% | 0 hPa | 0 mm | - | - | - |
| 1788077575 | 15.56° C | 74% | 0 hPa | 0 mm | - | - | - |
| 1788077275 | 15.56° C | 72% | 0 hPa | 0 mm | - | - | - |
| 1788076975 | 15.56° C | 71% | 0 hPa | 0 mm | - | - | - |
| 1788076675 | 15.56° C | 70% | 0 hPa | 0 mm | - | - | - |
| 1788076375 | 16.11° C | 72% | 0 hPa | 0 mm | - | - | - |
| 1788076075 | 16.11° C | 70% | 0 hPa | 0 mm | - | - | - |
| 1788075775 | 15.56° C | 71% | 0 hPa | 0 mm | - | - | - |
| 1788075475 | 16.11° C | 70% | 0 hPa | 0 mm | - | - | - |
| 1788075175 | 16.11° C | 69% | 0 hPa | 0 mm | - | - | - |
| 1788074875 | 16.67° C | 67% | 0 hPa | 0 mm | - | - | - |
| 1788074575 | 16.67° C | 68% | 0 hPa | 0 mm | - | - | - |
| 1788074275 | 16.67° C | 68% | 0 hPa | 0 mm | - | - | - |
| 1788073975 | 16.67° C | 67% | 0 hPa | 0 mm | - | - | - |
| 1788073675 | 17.22° C | 64% | 0 hPa | 0 mm | - | - | - |
| 1788073375 | 17.22° C | 65% | 0 hPa | 0 mm | - | - | - |
| 1788073075 | 17.78° C | 66% | 0 hPa | 0 mm | - | - | - |
| 1788072775 | 17.78° C | 63% | 0 hPa | 0 mm | - | - | - |
| 1788072475 | 17.78° C | 65% | 0 hPa | 0 mm | - | - | - |
| 1788072175 | 18.33° C | 62% | 0 hPa | 0 mm | - | - | - |
| 1788071875 | 18.89° C | 62% | 0 hPa | 0 mm | - | - | - |
* Rain latest hour (hover to see other rain measurements)
** Current wind speed in m/s (hover to see current wind gust speed)